Miscellaneous Local Product
Issued by NWS Hastings, NE

Home | Current Version | Previous Version | Graphics & Text | Print | Product List | Glossary On
Versions: 1 2 3 4 5 6 7 8 9 10 11 12 13 14 15 16 17 18 19 20 21 22 23 24 25 26 27 28 29 30 31 32 33 34 35 36 37 38 39 40 41 42 43 44 45 46 47 48 49 50
714
AXUS43 KGID 270402
MISGRI

GID CWA HOURLY WEATHER ROUNDUP
NATIONAL WEATHER SERVICE HASTINGS NE
1100 PM CDT WED APR 26 2017

NOTE: "FAIR" INDICATES FEW OR NO CLOUDS BELOW 12,000 FEET WITH NO
SIGNIFICANT WEATHER AND/OR OBSTRUCTIONS TO VISIBILITY.

...SOUTH CENTRAL NEBRASKA...

CITY           SKY/WX    TMP DP  RH WIND       PRES   REMARKS
GRAND ISLAND   PTCLDY    31  27  85 W5        29.74R WCI  26
HASTINGS       CLEAR     34  27  75 CALM      29.75R
KEARNEY        CLEAR     36  27  69 N3        29.75R
ORD            CLEAR     32  27  81 W7        29.70S WCI  26
YORK           CLEAR     36  28  75 NW3       29.73S
AURORA         CLEAR     32  26  77 NW5       29.73S WCI  27
LEXINGTON      CLEAR     34  28  80 N3        29.74R
HOLDREGE       CLEAR     33  28  79 CALM      29.74R
HEBRON         MOCLDY    37  30  78 NW3       29.75R

...NEBRASKA PANHANDLE...

CITY           SKY/WX    TMP DP  RH WIND       PRES   REMARKS
CHADRON        CLEAR     33  29  85 CALM      29.73S
ALLIANCE       CLOUDY    36  30  79 E7        29.70S WCI  30
SCOTTSBLUFF    CLOUDY    44  38  79 SE6       29.71R
SIDNEY         MOCLDY    40  38  93 SE5       29.72S

...WESTERN AND NORTH CENTRAL NEBRASKA...

CITY           SKY/WX    TMP DP  RH WIND       PRES   REMARKS
VALENTINE      CLEAR     31  25  78 W7        29.71F WCI  24
AINSWORTH      CLEAR     33  29  86 W7        29.71S WCI  27
ONEILL         CLEAR     33  28  81 N3        29.71R
BROKEN BOW     CLEAR     31  26  82 NW3       29.72R
IMPERIAL       CLOUDY    39  31  72 NE6       29.73R WCI  35
NORTH PLATTE   CLEAR     34  28  79 CALM      29.73R
MCCOOK         CLEAR     37  28  70 E5        29.72R WCI  33

...EASTERN NEBRASKA...

CITY           SKY/WX    TMP DP  RH WIND       PRES   REMARKS
NORFOLK        CLOUDY    37  29  72 N9        29.71R WCI  30
SO SIOUX CITY  CLOUDY    36  28  73 N15G22    29.70S WCI  27
TEKAMAH        CLOUDY    39  31  72 NW12      29.70F WCI  32
COLUMBUS       CLOUDY    37  28  70 NW5       29.72S WCI  34
ALBION         CLEAR     32  29  87 CALM      29.72R
OMAHA EPPLEY   CLOUDY    41  31  67 NW13      29.69S
OFFUTT AFB     CLOUDY    41  31  67 NW7       29.69F
MILLARD        CLOUDY    42  32  67 NW13G18   29.70F
LINCOLN        CLOUDY    43  29  57 N14       29.73S
NEBRASKA CITY  CLOUDY    41  30  63 N16       29.69F
BEATRICE       CLOUDY    44  33  65 N14       29.71F
FALLS CITY     CLOUDY    43  33  68 NW13      29.68F

...NORTHERN KANSAS...

CITY           SKY/WX    TMP DP  RH WIND       PRES   REMARKS
GOODLAND       CLEAR     41  29  62 S7        29.72R
HILL CITY      CLEAR     38  31  76 CALM      29.74R
NORTON         CLEAR     36  25  64 CALM      29.72S
PHILLIPSBURG   CLEAR     39  30  70 CALM      29.76R
SMITH CENTER   PTCLDY    36  28  75 NE8       29.76R WCI  29
HAYS           CLEAR     40  33  76 E6        29.74R
RUSSELL        CLEAR     39  32  76 E7        29.73R WCI  34
CONCORDIA      CLEAR     38  32  79 NW7       29.74R WCI  33
SALINA         CLEAR     44  35  70 CALM      29.74S
TOPEKA         CLOUDY    46  37  71 NW8       29.70S



USA.gov is the U.S. government's official web portal to all federal, state and local government web resources and services.